Location: Blue Spring Branch
(37.8445°N, 89.8815°W)
Time: 08:55:55
(UTC+00:00)

Daily predictions for brighter satellites

Satellite Brightness Start Highest point End
(mag) Time Altitude Azimuth Time Altitude Azimuth Time Altitude Azimuth
Cosmos 1812 1.6 12:01:01 10° S 12:03:25 76° E 12:05:52 10° N
Cosmos 1300 Rocket 3.6 12:00:45 10° S 12:05:07 88° E 12:09:33 10° N
Cosmos 990 Rocket 3.9 12:01:11 10° SSW 12:06:24 82° WNW 12:11:40 10° NNE
NOSS 3-1 (C) 3.0 12:02:28 10° SW 12:06:51 50° NW 12:11:58 10° NNE
Exosat Rocket 3.7 12:02:04 10° NNW 12:07:21 51° WSW 12:12:09 10° S
Cosmos 1980 Rocket 2.5 12:04:47 10° SW 12:10:05 44° WNW 12:15:26 10° N
NOSS 3-1 (A) 3.4 12:06:47 10° SSW 12:11:07 60° ESE 12:16:10 10° NE
IRS-1D 4.4 12:07:15 10° N 12:11:34 27° WNW 12:15:47 10° WSW
Cosmos 1674 Rocket 4.2 12:07:52 10° NNW 12:11:51 34° W 12:15:47 10° SSW
Cosmos 2237 4.5 12:09:20 10° SSW 12:15:01 77° ESE 12:20:43 10° NNE
USA 215 3.3 12:08:44 10° SE 12:15:18 84° SW 12:21:55 10° NW
COSMOS 2455 3.5 12:10:21 10° WSW 12:15:44 34° NW 12:21:12 10° N
Cosmos 1697 Rocket 4.2 12:19:24 10° W 12:22:56 17° NW 12:26:29 10° NNW
Cosmos 2084 4.4 12:20:07 10° WNW 12:23:33 27° WSW 12:26:57 10° S
CZ-2D R/B 4.1 12:22:26 10° NNE 12:25:22 43° E 12:28:16 10° S
Cosmos 1484 Rocket 3.0 12:22:15 10° N 12:25:32 39° WNW 12:28:47 10° SW
Cosmos 2297 Rocket 3.8 12:24:55 10° WNW 12:27:24 13° W 12:29:53 10° WSW
Aureole 1 Rocket 4.5 12:24:07 10° SSW 12:31:35 86° ESE 12:38:31 10° NNE
